SCP
0 0 0 0 0 0 0 0 0 0 0 0 0 0 0 0 0 0 1 0 0 1 1 1 0 0 0 0 0 0 0 0 0 0 0 0 0 0 0 0 0 0 0
0 0 0 0 0 0 0 0 0 0 0 0 0 0 0 0 0 0 0 0 1 0 1 1 1 1 0 0 0 1 0 0 0 0 0 0 0 0 0 0 0 0 0
0 0 0 0 0 0 0 0 0 0 0 0 0 0 0 0 0 0 0 0 0 0 0 1 1 1 1 1 0 1 1 0 0 0 0 0 0 0 0 0 0 0 0
0 0 0 0 0 0 0 0 0 0 0 0 0 0 0 0 0 0 0 0 0 0 0 0 1 1 1 1 1 1 1 1 0 0 0 0 0 0 0 0 0 0 0
0 0 0 0 0 0 0 0 0 0 0 0 0 0 0 0 0 0 0 0 0 0 0 0 0 1 1 1 1 1 1 1 1 0 0 0 0 0 0 0 0 0 0
0 0 0 0 0 0 0 0 0 0 0 0 0 0 0 0 0 0 0 0 0 0 0 0 0 0 0 1 1 1 2 2 1 1 0 0 0 0 0 0 0 0 0
0 0 0 0 0 0 0 0 0 0 0 0 0 0 0 0 0 0 0 0 0 0 0 0 0 0 0 0 1 1 2 2 2 2 1 0 0 0 0 0 0 0 0
0 0 0 0 0 0 0 0 0 0 0 0 0 0 0 -0 0 0 0 -0 0 0 0 0 0 0 0 0 0 -0 0 1 2 1 1 1 1 0 0 0 0 0 0
0 0 0 0 0 0 0 0 0 0 0 0 0 0 0 0 0 0 0 -0 -0 0 0 0 0 0 0 0 0 0 0 1 2 2 2 1 1 1 1 0 0 0 0
0 0 0 0 0 0 0 0 0 0 0 0 0 0 0 0 0 -0 0 0 0 0 0 0 0 0 0 -0 0 0 0 0 1 1 1 1 2 1 1 1 1 1 0
0 0 0 0 0 0 0 0 0 0 0 0 0 0 0 0 0 0 -0 -0 0 0 0 0 0 0 0 0 0 0 0 0 0 1 -1 0 1 1 1 1 2 1 1
0 0 0 0 0 0 0 0 0 0 0 0 0 0 0 0 0 0 0 0 0 0 -0 0 0 0 0 0 0 0 0 0 0 0 0 0 0 1 1 2 2 1 1
0 0 0 0 0 0 0 0 0 0 0 0 0 0 0 0 0 0 0 0 0 0 0 0 -0 0 0 0 0 0 0 0 0 0 0 0 0 0 1 1 2 1 1
0 0 0 0 0 0 0 0 0 0 0 0 0 0 0 0 0 0 0 0 0 0 0 -0 0 -0 -0 0 0 0 0 0 0 0 0 0 0 0 0 0 0 0 0
0 0 0 0 0 0 0 0 0 0 0 0 0 0 0 0 0 0 0 0 0 0 0 0 -0 -0 -0 -0 0 0 0 0 0 0 0 0 0 0 0 0 0 0 0
0 0 0 0 0 0 0 0 0 0 0 0 0 0 0 0 0 0 0 0 0 0 0 0 0 0 -0 -0 -0 0 0 0 0 0 0 0 0 0 0 0 0 0 0
0 0 0 0 0 0 0 0 0 0 0 0 0 0 0 0 0 0 0 0 0 0 0 0 0 0 -0 0 -0 -0 0 0 0 0 0 0 0 0 0 0 0 0 0
0 0 0 0 0 0 0 0 0 0 0 0 0 0 0 0 0 0 0 0 0 0 0 0 0 0 0 0 0 0 0 -0 0 0 0 0 0 0 0 0 0 0 0
0 0 0 0 0 0 0 0 0 0 0 0 0 0 0 0 0 0 0 0 0 0 0 0 0 0 0 0 0 -0 0 0 0 0 0 0 0 0 0 0 0 0 0
0 0 0 0 0 0 0 0 0 0 0 0 0 0 0 0 0 0 0 0 0 0 0 0 0 0 0 0 0 0 0 0 0 0 0 0 0 0 0 0 0 0 0
0 0 0 0 0 0 0 0 0 0 0 0 0 0 0 0 0 0 0 0 0 0 0 0 0 0 0 0 0 0 0 -0 -0 -0 -0 0 0 0 0 0 0 0 0
0 -0 -0 0 0 0 0 0 0 0 0 0 0 0 0 0 0 0 0 0 0 0 0 0 0 0 0 0 0 0 0 0 0 0 0 0 0 0 0 0 0 0 0
0 0 0 0 0 0 0 0 0 0 0 0 0 0 0 0 0 0 0 0 0 0 0 0 0 0 0 0 0 0 0 0 0 0 0 0 0 0 0 0 0 0 0
0 0 0 0 0 0 0 0 0 0 0 0 0 0 0 0 0 0 0 0 0 0 0 0 0 0 0 0 0 0 0 0 0 0 0 0 0 0 0 0 0 0 0
0 0 0 0 0 0 0 0 0 0 0 0 0 0 0 0 0 0 0 0 0 0 0 0 0 0 0 0 0 0 0 0 0 0 0 0 0 0 0 0 0 0 0
0 0 0 0 0 0 0 0 0 0 0 0 0 0 0 0 0 0 0 0 0 0 0 0 0 0 0 0 0 0 0 0 0 0 0 0 0 0 0 0 0 0 0
Wind_Speed_500mb
36 39 40 40 40 42 45 47 48 48 45 43 43 39 38 33 47 57 54 60 70 57 52 51 46 52 53 52 51 50 47 41 38 34 34 36 38 39 35 34 34 34 35
30 35 39 42 44 43 44 46 48 48 45 42 40 38 38 37 39 46 54 52 43 63 73 60 61 55 57 60 62 56 52 46 45 41 36 38 40 43 44 43 43 42 38
29 33 37 40 41 44 46 46 47 46 45 47 40 40 34 31 36 45 45 48 54 56 61 59 56 64 67 66 68 71 61 55 48 51 44 30 40 37 42 53 44 47 46
29 31 33 35 38 42 42 41 44 45 44 46 43 43 38 39 41 48 47 54 64 45 55 60 56 54 66 69 72 64 72 64 58 49 59 61 45 24 28 35 39 39 54
28 32 34 35 34 37 38 38 40 42 44 43 44 42 40 39 38 40 51 50 54 63 52 41 45 59 65 70 69 70 62 69 64 61 53 51 49 69 45 37 24 31 39
35 36 36 31 32 34 35 33 35 38 42 43 43 42 43 44 42 41 43 48 50 50 47 38 37 51 77 72 88 74 75 66 68 61 64 60 53 44 50 56 60 60 42
39 40 39 34 31 33 32 32 34 36 38 40 41 42 42 42 42 42 41 46 51 47 47 44 39 25 52 64 81 80 82 81 76 73 72 69 68 60 55 51 58 56 52
32 34 30 31 29 29 31 32 34 36 37 38 39 40 41 39 40 42 42 38 42 43 51 51 41 43 30 35 71 112 76 80 57 66 68 69 69 69 67 71 60 53 58
26 30 32 26 27 27 29 31 33 36 38 39 38 38 40 40 41 41 41 41 41 43 43 47 44 42 43 41 44 65 88 59 53 48 50 68 75 74 68 70 74 71 64
24 28 29 25 24 25 26 28 31 34 37 39 38 38 40 39 40 38 40 41 44 44 44 44 42 42 42 49 39 44 44 81 86 77 71 68 67 67 72 78 73 77 79
24 26 26 22 22 24 24 26 29 33 37 38 40 41 40 40 39 39 39 39 41 45 47 49 43 40 37 40 49 48 46 52 38 67 83 88 80 71 72 72 77 80 77
25 25 25 23 24 25 25 26 28 32 36 39 39 40 40 40 40 40 41 41 40 39 43 47 43 41 37 44 49 50 55 55 47 50 55 90 88 92 87 92 88 75 76
27 26 26 27 28 29 28 27 29 32 35 38 37 37 38 39 41 41 42 41 42 41 38 40 42 39 40 46 52 52 50 52 53 52 49 78 72 69 95 102 94 77 82
27 26 27 27 29 31 33 32 32 34 36 37 35 36 38 39 39 40 41 40 41 41 40 40 40 37 38 46 51 56 57 52 55 56 63 52 58 78 68 99 67 67 84
29 28 29 30 32 34 34 33 32 34 37 37 36 35 36 38 40 41 42 41 40 40 39 37 44 39 36 47 53 55 56 54 50 50 52 59 69 64 63 49 68 80 82
33 33 33 34 35 35 35 32 31 33 35 35 36 35 37 38 39 39 41 40 40 39 39 37 36 41 38 46 51 51 53 53 47 53 48 49 50 67 71 73 77 54 80
37 38 36 37 36 37 33 30 31 32 33 34 34 35 35 36 36 37 40 40 40 40 42 37 38 37 37 53 56 49 51 52 49 46 52 50 46 51 63 73 79 81 80
37 40 38 37 37 35 32 31 31 32 33 34 33 34 34 35 36 36 37 39 39 42 42 39 39 39 35 54 58 54 49 48 48 49 47 49 51 48 54 61 70 79 78
36 42 41 40 40 40 36 33 33 34 34 34 33 32 32 35 37 38 40 39 40 41 41 40 42 41 39 48 61 53 53 47 44 46 51 42 50 50 50 58 63 66 74
46 47 48 48 44 42 40 37 34 35 35 33 32 31 32 34 37 40 41 39 40 43 43 44 43 43 42 43 61 56 51 48 51 55 47 44 50 54 48 56 60 67 65
64 63 61 58 55 45 38 41 37 36 34 32 30 32 32 34 37 40 41 43 42 43 46 49 49 47 41 42 50 55 54 54 62 57 53 53 56 57 56 50 53 59 66
72 70 71 68 55 49 40 40 42 35 32 30 31 32 33 36 37 39 41 42 43 44 44 47 48 42 47 45 55 53 50 53 62 61 64 64 59 57 57 53 51 53 54
63 58 59 63 62 49 41 37 41 32 29 31 33 34 36 37 37 39 39 42 40 40 43 45 54 56 53 55 58 54 49 58 58 59 65 66 63 59 54 51 53 52 50
65 64 59 63 60 48 42 36 37 31 28 30 33 36 38 40 40 38 38 39 40 41 43 46 53 62 62 60 55 58 61 60 59 62 67 68 61 58 57 51 48 46 49
65 64 63 61 60 49 38 35 35 30 30 31 33 36 37 38 42 41 42 44 46 47 59 67 63 65 64 61 61 60 61 64 66 71 72 65 58 57 57 51 48 44 43
60 61 61 62 52 37 35 38 31 29 29 32 32 32 37 39 42 44 50 52 60 63 65 73 63 66 63 63 63 61 58 62 64 66 65 62 58 57 56 56 53 50 48
Wind_Direction_500mb
15 16 17 14 11 10 9 6 1 359 357 352 348 341 334 294 267 269 271 279 244 242 245 234 235 233 231 231 234 235 232 230 233 236 241 245 248 242 237 236 239 241 240
16 14 13 11 11 10 9 8 3 358 357 352 348 339 334 325 310 276 281 273 281 262 254 246 238 229 238 232 228 230 230 237 229 231 239 245 248 248 247 237 234 236 236
10 9 7 6 5 4 4 5 4 359 354 353 347 342 342 329 314 290 274 270 263 263 252 258 247 241 233 234 232 225 227 229 237 233 227 236 245 253 250 242 230 232 236
0 359 357 358 359 357 358 360 3 360 355 355 354 351 344 336 330 326 311 289 269 289 252 262 265 251 244 232 231 234 228 228 229 236 238 232 240 275 272 237 237 232 231
349 341 340 342 344 350 353 352 356 358 358 357 356 354 345 337 332 328 324 314 303 287 286 274 283 256 255 248 235 224 231 226 232 227 238 240 250 242 252 262 239 235 234
331 328 323 325 332 340 347 350 352 354 354 357 357 353 350 346 339 336 334 328 322 317 305 303 271 260 271 263 241 229 226 231 229 230 233 240 243 246 245 247 253 260 255
330 329 327 319 327 335 344 349 350 353 351 353 354 356 351 349 347 342 336 332 327 327 324 314 295 288 250 253 242 239 241 234 234 240 236 237 240 245 245 246 251 254 256
341 341 339 333 329 334 340 347 349 349 350 350 352 351 351 349 345 344 341 338 332 330 327 319 327 292 297 277 253 261 275 234 237 240 245 249 246 242 244 241 249 254 254
347 343 342 341 337 332 337 344 346 346 347 348 350 350 350 348 345 344 344 341 337 333 326 324 325 319 302 258 239 239 268 244 252 253 257 254 254 249 241 245 242 242 251
344 345 341 345 327 329 330 337 342 346 344 345 348 346 346 345 344 343 340 341 342 339 334 331 328 326 324 302 280 260 254 252 254 265 264 264 259 256 255 246 243 244 245
339 344 342 338 332 329 325 330 336 341 344 344 343 343 343 343 344 343 343 341 340 342 342 335 328 326 330 321 295 279 280 263 266 249 262 262 262 259 253 254 252 241 242
325 330 334 326 323 328 322 322 329 334 339 340 338 339 339 341 342 342 342 343 344 342 342 338 331 331 331 321 308 305 295 291 285 273 274 264 268 254 259 257 250 246 247
318 320 322 318 315 318 318 314 319 325 332 334 334 335 337 338 340 340 341 342 343 343 341 335 343 338 334 316 313 313 307 305 295 285 263 254 262 270 253 249 250 248 251
306 314 319 316 313 313 315 310 313 320 327 331 333 332 333 335 336 336 338 341 341 342 340 337 338 341 336 322 317 317 317 313 303 296 283 284 264 256 284 244 259 269 258
296 302 309 312 308 307 308 306 305 314 320 325 328 328 329 331 332 334 336 337 338 339 339 338 333 334 327 318 320 322 324 322 316 302 307 291 278 279 267 273 265 265 263
292 299 299 304 307 306 304 298 300 306 314 318 321 323 326 328 328 330 332 333 333 335 336 337 338 333 331 313 318 322 325 320 321 316 304 301 298 282 279 270 259 261 252
288 295 294 298 303 305 301 294 296 303 308 312 316 317 321 322 323 324 328 327 328 327 332 334 334 332 331 317 326 330 323 319 320 315 314 308 302 298 286 279 276 265 263
281 295 297 297 298 301 298 291 292 298 304 306 309 313 315 317 319 320 322 322 323 325 328 327 327 326 325 313 324 330 327 322 317 311 308 312 306 305 298 291 281 275 273
283 286 287 288 291 295 294 288 291 296 299 302 302 308 313 315 316 317 317 320 318 318 320 319 319 319 316 315 312 322 323 324 318 314 313 308 307 300 303 298 293 284 276
289 288 288 286 282 285 287 285 287 292 294 295 298 305 309 311 310 311 313 314 313 312 311 311 312 309 313 307 304 316 319 318 315 317 316 312 302 305 299 299 298 294 292
288 288 284 281 278 273 272 279 285 288 291 289 298 303 306 306 305 306 308 310 309 307 307 308 307 308 307 309 306 311 317 315 313 316 314 310 307 306 300 293 289 295 298
287 284 283 282 273 266 263 272 279 286 283 288 295 300 302 302 301 303 303 304 305 305 306 307 309 306 306 305 298 305 310 310 311 309 310 309 310 307 304 298 289 286 293
289 285 284 280 277 267 259 261 273 277 278 286 293 297 299 299 300 299 303 301 302 303 305 307 307 309 307 307 308 309 306 301 304 305 305 306 309 308 306 300 295 287 287
287 283 283 282 276 263 260 258 266 268 274 282 291 295 298 296 297 299 297 296 297 298 301 304 302 301 305 307 309 303 302 304 305 304 301 305 306 306 308 308 305 298 289
290 283 282 280 274 262 257 256 259 263 272 281 288 292 294 294 294 296 294 292 290 290 296 303 305 304 304 305 304 307 305 304 304 306 304 304 306 306 308 308 310 309 306
291 286 281 280 267 254 254 254 255 261 271 280 287 289 291 294 294 296 297 292 292 299 299 305 306 311 303 301 305 308 303 303 305 303 301 303 304 305 309 311 312 311 312
Wind_Speed_850mb
36 39 40 40 40 42 45 47 48 48 45 43 43 39 38 33 47 57 54 60 70 57 52 51 46 52 53 52 51 50 47 41 38 34 34 36 38 39 35 34 34 34 35
30 35 39 42 44 43 44 46 48 48 45 42 40 38 38 37 39 46 54 52 43 63 73 60 61 55 57 60 62 56 52 46 45 41 36 38 40 43 44 43 43 42 38
29 33 37 40 41 44 46 46 47 46 45 47 40 40 34 31 36 45 45 48 54 56 61 59 56 64 67 66 68 71 61 55 48 51 44 30 40 37 42 53 44 47 46
29 31 33 35 38 42 42 41 44 45 44 46 43 43 38 39 41 48 47 54 64 45 55 60 56 54 66 69 72 64 72 64 58 49 59 61 45 24 28 35 39 39 54
28 32 34 35 34 37 38 38 40 42 44 43 44 42 40 39 38 40 51 50 54 63 52 41 45 59 65 70 69 70 62 69 64 61 53 51 49 69 45 37 24 31 39
35 36 36 31 32 34 35 33 35 38 42 43 43 42 43 44 42 41 43 48 50 50 47 38 37 51 77 72 88 74 75 66 68 61 64 60 53 44 50 56 60 60 42
39 40 39 34 31 33 32 32 34 36 38 40 41 42 42 42 42 42 41 46 51 47 47 44 39 25 52 64 81 80 82 81 76 73 72 69 68 60 55 51 58 56 52
32 34 30 31 29 29 31 32 34 36 37 38 39 40 41 39 40 42 42 38 42 43 51 51 41 43 30 35 71 112 76 80 57 66 68 69 69 69 67 71 60 53 58
26 30 32 26 27 27 29 31 33 36 38 39 38 38 40 40 41 41 41 41 41 43 43 47 44 42 43 41 44 65 88 59 53 48 50 68 75 74 68 70 74 71 64
24 28 29 25 24 25 26 28 31 34 37 39 38 38 40 39 40 38 40 41 44 44 44 44 42 42 42 49 39 44 44 81 86 77 71 68 67 67 72 78 73 77 79
24 26 26 22 22 24 24 26 29 33 37 38 40 41 40 40 39 39 39 39 41 45 47 49 43 40 37 40 49 48 46 52 38 67 83 88 80 71 72 72 77 80 77
25 25 25 23 24 25 25 26 28 32 36 39 39 40 40 40 40 40 41 41 40 39 43 47 43 41 37 44 49 50 55 55 47 50 55 90 88 92 87 92 88 75 76
27 26 26 27 28 29 28 27 29 32 35 38 37 37 38 39 41 41 42 41 42 41 38 40 42 39 40 46 52 52 50 52 53 52 49 78 72 69 95 102 94 77 82
27 26 27 27 29 31 33 32 32 34 36 37 35 36 38 39 39 40 41 40 41 41 40 40 40 37 38 46 51 56 57 52 55 56 63 52 58 78 68 99 67 67 84
29 28 29 30 32 34 34 33 32 34 37 37 36 35 36 38 40 41 42 41 40 40 39 37 44 39 36 47 53 55 56 54 50 50 52 59 69 64 63 49 68 80 82
33 33 33 34 35 35 35 32 31 33 35 35 36 35 37 38 39 39 41 40 40 39 39 37 36 41 38 46 51 51 53 53 47 53 48 49 50 67 71 73 77 54 80
37 38 36 37 36 37 33 30 31 32 33 34 34 35 35 36 36 37 40 40 40 40 42 37 38 37 37 53 56 49 51 52 49 46 52 50 46 51 63 73 79 81 80
37 40 38 37 37 35 32 31 31 32 33 34 33 34 34 35 36 36 37 39 39 42 42 39 39 39 35 54 58 54 49 48 48 49 47 49 51 48 54 61 70 79 78
36 42 41 40 40 40 36 33 33 34 34 34 33 32 32 35 37 38 40 39 40 41 41 40 42 41 39 48 61 53 53 47 44 46 51 42 50 50 50 58 63 66 74
46 47 48 48 44 42 40 37 34 35 35 33 32 31 32 34 37 40 41 39 40 43 43 44 43 43 42 43 61 56 51 48 51 55 47 44 50 54 48 56 60 67 65
64 63 61 58 55 45 38 41 37 36 34 32 30 32 32 34 37 40 41 43 42 43 46 49 49 47 41 42 50 55 54 54 62 57 53 53 56 57 56 50 53 59 66
72 70 71 68 55 49 40 40 42 35 32 30 31 32 33 36 37 39 41 42 43 44 44 47 48 42 47 45 55 53 50 53 62 61 64 64 59 57 57 53 51 53 54
63 58 59 63 62 49 41 37 41 32 29 31 33 34 36 37 37 39 39 42 40 40 43 45 54 56 53 55 58 54 49 58 58 59 65 66 63 59 54 51 53 52 50
65 64 59 63 60 48 42 36 37 31 28 30 33 36 38 40 40 38 38 39 40 41 43 46 53 62 62 60 55 58 61 60 59 62 67 68 61 58 57 51 48 46 49
65 64 63 61 60 49 38 35 35 30 30 31 33 36 37 38 42 41 42 44 46 47 59 67 63 65 64 61 61 60 61 64 66 71 72 65 58 57 57 51 48 44 43
60 61 61 62 52 37 35 38 31 29 29 32 32 32 37 39 42 44 50 52 60 63 65 73 63 66 63 63 63 61 58 62 64 66 65 62 58 57 56 56 53 50 48
Wind_Direction_850mb
15 16 17 14 11 10 9 6 1 359 357 352 348 341 334 294 267 269 271 279 244 242 245 234 235 233 231 231 234 235 232 230 233 236 241 245 248 242 237 236 239 241 240
16 14 13 11 11 10 9 8 3 358 357 352 348 339 334 325 310 276 281 273 281 262 254 246 238 229 238 232 228 230 230 237 229 231 239 245 248 248 247 237 234 236 236
10 9 7 6 5 4 4 5 4 359 354 353 347 342 342 329 314 290 274 270 263 263 252 258 247 241 233 234 232 225 227 229 237 233 227 236 245 253 250 242 230 232 236
0 359 357 358 359 357 358 360 3 360 355 355 354 351 344 336 330 326 311 289 269 289 252 262 265 251 244 232 231 234 228 228 229 236 238 232 240 275 272 237 237 232 231
349 341 340 342 344 350 353 352 356 358 358 357 356 354 345 337 332 328 324 314 303 287 286 274 283 256 255 248 235 224 231 226 232 227 238 240 250 242 252 262 239 235 234
331 328 323 325 332 340 347 350 352 354 354 357 357 353 350 346 339 336 334 328 322 317 305 303 271 260 271 263 241 229 226 231 229 230 233 240 243 246 245 247 253 260 255
330 329 327 319 327 335 344 349 350 353 351 353 354 356 351 349 347 342 336 332 327 327 324 314 295 288 250 253 242 239 241 234 234 240 236 237 240 245 245 246 251 254 256
341 341 339 333 329 334 340 347 349 349 350 350 352 351 351 349 345 344 341 338 332 330 327 319 327 292 297 277 253 261 275 234 237 240 245 249 246 242 244 241 249 254 254
347 343 342 341 337 332 337 344 346 346 347 348 350 350 350 348 345 344 344 341 337 333 326 324 325 319 302 258 239 239 268 244 252 253 257 254 254 249 241 245 242 242 251
344 345 341 345 327 329 330 337 342 346 344 345 348 346 346 345 344 343 340 341 342 339 334 331 328 326 324 302 280 260 254 252 254 265 264 264 259 256 255 246 243 244 245
339 344 342 338 332 329 325 330 336 341 344 344 343 343 343 343 344 343 343 341 340 342 342 335 328 326 330 321 295 279 280 263 266 249 262 262 262 259 253 254 252 241 242
325 330 334 326 323 328 322 322 329 334 339 340 338 339 339 341 342 342 342 343 344 342 342 338 331 331 331 321 308 305 295 291 285 273 274 264 268 254 259 257 250 246 247
318 320 322 318 315 318 318 314 319 325 332 334 334 335 337 338 340 340 341 342 343 343 341 335 343 338 334 316 313 313 307 305 295 285 263 254 262 270 253 249 250 248 251
306 314 319 316 313 313 315 310 313 320 327 331 333 332 333 335 336 336 338 341 341 342 340 337 338 341 336 322 317 317 317 313 303 296 283 284 264 256 284 244 259 269 258
296 302 309 312 308 307 308 306 305 314 320 325 328 328 329 331 332 334 336 337 338 339 339 338 333 334 327 318 320 322 324 322 316 302 307 291 278 279 267 273 265 265 263
292 299 299 304 307 306 304 298 300 306 314 318 321 323 326 328 328 330 332 333 333 335 336 337 338 333 331 313 318 322 325 320 321 316 304 301 298 282 279 270 259 261 252
288 295 294 298 303 305 301 294 296 303 308 312 316 317 321 322 323 324 328 327 328 327 332 334 334 332 331 317 326 330 323 319 320 315 314 308 302 298 286 279 276 265 263
281 295 297 297 298 301 298 291 292 298 304 306 309 313 315 317 319 320 322 322 323 325 328 327 327 326 325 313 324 330 327 322 317 311 308 312 306 305 298 291 281 275 273
283 286 287 288 291 295 294 288 291 296 299 302 302 308 313 315 316 317 317 320 318 318 320 319 319 319 316 315 312 322 323 324 318 314 313 308 307 300 303 298 293 284 276
289 288 288 286 282 285 287 285 287 292 294 295 298 305 309 311 310 311 313 314 313 312 311 311 312 309 313 307 304 316 319 318 315 317 316 312 302 305 299 299 298 294 292
288 288 284 281 278 273 272 279 285 288 291 289 298 303 306 306 305 306 308 310 309 307 307 308 307 308 307 309 306 311 317 315 313 316 314 310 307 306 300 293 289 295 298
287 284 283 282 273 266 263 272 279 286 283 288 295 300 302 302 301 303 303 304 305 305 306 307 309 306 306 305 298 305 310 310 311 309 310 309 310 307 304 298 289 286 293
289 285 284 280 277 267 259 261 273 277 278 286 293 297 299 299 300 299 303 301 302 303 305 307 307 309 307 307 308 309 306 301 304 305 305 306 309 308 306 300 295 287 287
287 283 283 282 276 263 260 258 266 268 274 282 291 295 298 296 297 299 297 296 297 298 301 304 302 301 305 307 309 303 302 304 305 304 301 305 306 306 308 308 305 298 289
290 283 282 280 274 262 257 256 259 263 272 281 288 292 294 294 294 296 294 292 290 290 296 303 305 304 304 305 304 307 305 304 304 306 304 304 306 306 308 308 310 309 306
291 286 281 280 267 254 254 254 255 261 271 280 287 289 291 294 294 296 297 292 292 299 299 305 306 311 303 301 305 308 303 303 305 303 301 303 304 305 309 311 312 311 312